Retour au catalogue

COSMOS 2251 DEB

LostLEO
NORAD 36459·DEBRIS·🇷🇺 Russia

Lancé Jun 16, 1993 depuis Plesetsk Cosmodrome

Loading…

Prochains Passages (prochaines 24 heures)

TLE

PériméSource: Space-Track

Époque: Aug 10, 2026, 12:26 UTC

1 36459U 93036BBJ 26222.51814821  .00000766  00000-0  29667-3 0  9994
2 36459  74.0404 284.1080 0117558 321.4163  37.8626 14.28035340113173

Suivez COSMOS 2251 DEB en temps réel avec AllMySat

Download on the App Store